Regional Weather Roundup
Issued by NWS San Angelo, TX

Home | Current Version | Previous Version | Text Only | Print | Product List | Glossary On
Versions: 1 2 3 4 5 6 7 8 9 10 11 12 13 14 15 16 17 18 19 20 21 22 23 24 25 26 27 28 29 30 31 32 33 34 35 36 37 38 39 40 41 42 43 44 45 46 47 48 49 50
000
ASUS44 KSJT 282358
RWRSJT
WEST CENTRAL TEXAS REGIONAL WEATHER ROUNDUP
NATIONAL WEATHER SERVICE SAN ANGELO TX
700 PM CDT WED JUN 28 2017

NOTE: "FAIR" INDICATES FEW OR NO CLOUDS BELOW 12,000 FEET WITH NO
SIGNIFICANT WEATHER AND/OR OBSTRUCTIONS TO VISIBILITY.

TXZ049-054-064>066-071>073-076>078-098-099-113-114-127-128-139-140-
154-155-168>170-290100
...LOCATIONS ACROSS WEST CENTRAL TEXAS...

CITY           SKY/WX    TMP DP  RH WIND       PRES   REMARKS
SAN ANGELO     SUNNY     94  58  29 SE14G21   29.81F
ABILENE        SUNNY     88  64  44 SE21G29   29.84S
DYESS AFB      NOT AVBL
JUNCTION       SUNNY     90  64  42 SE14G23   29.86S
SWEETWATER     NOT AVBL
BROWNWOOD      NOT AVBL
COLEMAN        NOT AVBL
SONORA         NOT AVBL
OZONA          NOT AVBL
BRADY          NOT AVBL
$$

TEXAS PANHANDLE/OKLAHOMA PANHANDLE

CITY           SKY/WX    TMP DP  RH WIND       PRES   REMARKS
AMARILLO       SUNNY     96  48  19 S16       29.78F
BORGER         SUNNY     98  59  27 SE17G29   29.72F
CANADIAN       NOT AVBL
DALHART        SUNNY     97  47  18 SE14      29.77F
DUMAS          NOT AVBL
GUYMON         NOT AVBL
HEREFORD       NOT AVBL
PAMPA          NOT AVBL
PERRYTON       NOT AVBL
$$

SOUTHERN PANHANDLE/SOUTH PLAINS/ROLLING PLAINS

CITY           SKY/WX    TMP DP  RH WIND       PRES   REMARKS
LUBBOCK        MOSUNNY   94  56  27 S18       29.81F
SNYDER         NOT AVBL
CHILDRESS      SUNNY     96  57  27 S21G29    29.75F
SEMINOLE       NOT AVBL
$$

PERMIAN BASIN

CITY           SKY/WX    TMP DP  RH WIND       PRES   REMARKS
MIDLAND        SUNNY     95  56  26 S20       29.82F
ODESSA         SUNNY     95  55  26 S15       29.83F
WINK           SUNNY     98  58  26 SE21      29.76S
$$

FAR WEST/SOUTHWEST MOUNTAINS/TRANS PECOS

CITY           SKY/WX    TMP DP  RH WIND       PRES   REMARKS
ALPINE         NOT AVBL
DRYDEN         NOT AVBL
EL PASO        MOSUNNY  101  27   7 W18G24    29.86F
FORT STOCKTON  TSTM      90  63  40 SE17G25   29.82F
GUADALUPE PASS NOT AVBL
MARFA          NOT AVBL
PECOS          NOT AVBL
$$

DALLAS/FORT WORTH METROPLEX

CITY           SKY/WX    TMP DP  RH WIND       PRES   REMARKS
DFW AIRPORT    MOSUNNY   89  68  49 S16       29.82F
FTW MEACHAM    SUNNY     89  69  51 SE20G29   29.82F
DAL-EXECUTIVE  SUNNY     87  68  52 S13G18    29.84F
GRAND PRAIRIE  SUNNY     90  66  45 SE12      29.85F
ADDISON        MOSUNNY   88  68  51 SE16G23   29.85F
MESQUITE       NOT AVBL
LANCASTER      NOT AVBL
$$

NORTH CENTRAL TEXAS

CITY           SKY/WX    TMP DP  RH WIND       PRES   REMARKS
SHRMAN/DENISON NOT AVBL
GAINESVILLE    NOT AVBL
BRIDGEPORT     NOT AVBL
DENTON         SUNNY     87  69  54 S20       29.82F
WAXAHACHIE     NOT AVBL
GRANBURY       NOT AVBL
$$

WESTERN NORTH TEXAS

CITY           SKY/WX    TMP DP  RH WIND       PRES   REMARKS
WICHITA FALLS  MOSUNNY   87  67  51 S17       29.80S
VERNON         NOT AVBL
BRECKENRIDGE   NOT AVBL
COMANCHE       NOT AVBL
$$

CENTRAL AND SOUTH CENTRAL TEXAS

CITY           SKY/WX    TMP DP  RH WIND       PRES   REMARKS
AUSTIN/BERGSTM MOSUNNY   91  69  48 SE7       29.82F
WACO           MOSUNNY   89  69  51 SE10      29.85F
HILLSBORO      NOT AVBL
TEMPLE         SUNNY     89  68  49 SE14      29.86F
KILLEEN-GRAY   NOT AVBL
FORT HOOD      NOT AVBL
GEORGETOWN     NOT AVBL
LAGO VISTA     NOT AVBL
SAN MARCOS     MOSUNNY   90  68  48 SE8       29.84F
NEW BRAUNFELS  SUNNY     91  68  46 E8        29.82F
RANDOLPH AFB   NOT AVBL
SAN ANTONIO    MOSUNNY   90  67  46 E13       29.84F
STINSON        SUNNY     92  68  45 SE10      29.81F
PLEASANTON     NOT AVBL
LA GRANGE      NOT AVBL
GIDDINGS       NOT AVBL
$$

EAST TEXAS

CITY           SKY/WX    TMP DP  RH WIND       PRES   REMARKS
PARIS          NOT AVBL
CLARKSVILLE    NOT AVBL
TYLER          MOSUNNY   87  69  54 SE9       29.87F
LONGVIEW       MOSUNNY   87  71  58 SE7       29.87F
PALESTINE      NOT AVBL
NACOGDOCHES    NOT AVBL
$$

TEXAS HILL COUNTRY AND EDWARDS PLATEAU

CITY           SKY/WX    TMP DP  RH WIND       PRES   REMARKS
LLANO          NOT AVBL
HORSESHOE BAY  NOT AVBL
KERRVILLE      NOT AVBL
FREDERICKSBRG  NOT AVBL
ROCKSPRINGS    NOT AVBL
HONDO          MOSUNNY   92  67  43 SE12      29.83F
UVALDE         NOT AVBL
DEL RIO        SUNNY     92  65  40 E10G20    29.79S
$$

SOUTHEAST TEXAS

CITY           SKY/WX    TMP DP  RH WIND       PRES   REMARKS
COLLEGE STN    SUNNY     90  70  51 E7        29.84S
CALDWELL       NOT AVBL
CROCKETT       NOT AVBL
BRENHAM        NOT AVBL
HUNTSVILLE     SUNNY     87  69  54 E7        29.86F
CONROE         MOSUNNY   86  72  62 E8G17     29.86S
HOUSTON BUSH   MOSUNNY   85  73  67 E13       29.84F
HOUSTON HOBBY  MOSUNNY   85  73  67 E10G18    29.84S
PERLAND        MOSUNNY   86  72  62 E9        29.85F
WHARTON        NOT AVBL
$$

THE UPPER TEXAS COAST

CITY           SKY/WX    TMP DP  RH WIND       PRES   REMARKS
ORANGE         NOT AVBL
PORT ARTHUR    MOSUNNY   82  72  71 E13G20    29.87F
GALVESTON      MOSUNNY   82  76  81 SE9       29.85F
ANGLETON       MOSUNNY   85  75  72 SE8       29.84S
BAY CITY       NOT AVBL
$$

TEXAS COASTAL BEND, RIO GRANDE PLAINS DEEP SOUTH TEXAS

CITY           SKY/WX    TMP DP  RH WIND       PRES   REMARKS
VICTORIA       MOSUNNY   87  75  67 E9        29.82F
BEEVILLE       NOT AVBL
ROCKPORT       MOSUNNY   85  75  72 SE10      29.81R
PORT ARANSAS   NOT AVBL
PORT LAVACA    NOT AVBL
CORPUS CHRISTI PTSUNNY   86  75  69 E13       29.81R
KINGSVILLE NAS NOT AVBL
COTULLA        SUNNY     93  62  35 E8        29.79F
LAREDO         NOT AVBL
BROWNSVILLE    CLOUDY    83  78  85 SE8       29.81F
PORT ISABEL    CLOUDY    86  76  71 SE12      29.80F
HEBBRONVILLE   NOT AVBL
MCALLEN        CLOUDY    93  72  50 E16       29.79F
WESLACO        NOT AVBL
FALFURRIAS     NOT AVBL
EDINBURG       NOT AVBL
$$




USA.gov is the U.S. government's official web portal to all federal, state and local government web resources and services.